RRR5132 EHEH-LMML

Flight info

Callsign RRR5132
Flight time 3h 12m
Altitude 27000
Route LNO Z283 RITAX UT27 ROUSY DCT GTQ DCT POGOL DCT LASAT DCT DEVDI DCT RIPUS DCT GERSA DCT SOSON DCT ODINA DCT KALIK DCT MARON DCT EKOLA L12 GZO
Aircraft C30J/M-SDE2E3FGRY/H

Departure

Time 2026-04-28 18:18
Airport Eindhoven Airport (EHEH)

Arrival

Time 2026-04-28 21:30
Airport Malta International Airport (LMML)
Time Latitude Longitude Altitude Speed Heading
2026-04-28 17:34 51.45066 5.38235 62 ft 0 kts 215°
2026-04-28 18:05 51.45065 5.38234 72 ft 0 kts 215°
2026-04-28 18:05 51.45051 5.38211 68 ft 5 kts 226°
2026-04-28 18:06 51.45049 5.38177 70 ft 7 kts 293°
2026-04-28 18:06 51.45075 5.38120 66 ft 5 kts 305°
2026-04-28 18:06 51.45100 5.38110 71 ft 6 kts 12°
2026-04-28 18:06 51.45139 5.38144 71 ft 7 kts 35°
2026-04-28 18:07 51.45191 5.38201 45 ft 5 kts 30°
2026-04-28 18:07 51.45223 5.38215 70 ft 5 kts 349°
2026-04-28 18:07 51.45266 5.38139 67 ft 10 kts 306°
2026-04-28 18:07 51.45309 5.38043 68 ft 10 kts 304°
2026-04-28 18:08 51.45320 5.38017 67 ft 0 kts 304°
2026-04-28 18:12 51.45322 5.38012 65 ft 3 kts 305°
2026-04-28 18:12 51.45359 5.37929 69 ft 14 kts 304°
2026-04-28 18:12 51.45424 5.37777 74 ft 16 kts 303°
2026-04-28 18:12 51.45431 5.37647 64 ft 10 kts 230°
2026-04-28 18:13 51.45362 5.37563 68 ft 16 kts 216°
2026-04-28 18:13 51.45259 5.37447 62 ft 20 kts 215°
2026-04-28 18:13 51.45136 5.37307 67 ft 23 kts 216°
2026-04-28 18:13 51.45001 5.37156 70 ft 22 kts 214°
2026-04-28 18:14 51.44886 5.37028 70 ft 20 kts 215°
2026-04-28 18:14 51.44763 5.36891 71 ft 23 kts 215°
2026-04-28 18:14 51.44634 5.36737 71 ft 21 kts 210°
2026-04-28 18:14 51.44524 5.36650 72 ft 0 kts 193°
2026-04-28 18:15 51.44483 5.36592 66 ft 19 kts 220°
2026-04-28 18:15 51.44382 5.36463 71 ft 15 kts 214°
2026-04-28 18:15 51.44270 5.36338 70 ft 20 kts 217°
2026-04-28 18:15 51.44150 5.36205 71 ft 20 kts 216°
2026-04-28 18:16 51.44042 5.36089 71 ft 18 kts 206°
2026-04-28 18:16 51.43967 5.36121 67 ft 11 kts 130°
2026-04-28 18:16 51.43931 5.36211 66 ft 6 kts 104°
2026-04-28 18:16 51.43946 5.36257 66 ft 0 kts 36°
2026-04-28 18:17 51.43947 5.36257 66 ft 1 kts 36°
2026-04-28 18:17 51.44108 5.36445 71 ft 67 kts 35°
2026-04-28 18:18 51.44698 5.37080 218 ft 129 kts 37°
2026-04-28 18:18 51.45558 5.38023 612 ft 168 kts 38°
2026-04-28 18:18 51.46578 5.39202 1011 ft 199 kts 39°
2026-04-28 18:18 51.47376 5.40123 1194 ft 216 kts 38°
2026-04-28 18:19 51.48977 5.41945 2499 ft 197 kts 40°
2026-04-28 18:19 51.49863 5.43449 3835 ft 178 kts 64°
2026-04-28 18:19 51.50113 5.45308 4940 ft 175 kts 89°
2026-04-28 18:19 51.50063 5.47159 6155 ft 160 kts 95°
2026-04-28 18:20 51.49970 5.48986 7063 ft 171 kts 95°
2026-04-28 18:20 51.49865 5.50912 7943 ft 175 kts 95°
2026-04-28 18:20 51.49750 5.52935 8747 ft 184 kts 95°
2026-04-28 18:20 51.49632 5.54962 9785 ft 182 kts 95°
2026-04-28 18:21 51.49502 5.57082 10448 ft 195 kts 97°
2026-04-28 18:21 51.49263 5.59231 11265 ft 200 kts 103°
2026-04-28 18:21 51.48518 5.61070 12123 ft 201 kts 142°
2026-04-28 18:21 51.47169 5.61674 12948 ft 209 kts 184°
2026-04-28 18:22 51.45793 5.60876 13836 ft 212 kts 205°
2026-04-28 18:22 51.44452 5.59915 14612 ft 212 kts 197°
2026-04-28 18:22 51.43025 5.59278 15305 ft 213 kts 189°
2026-04-28 18:22 51.41548 5.58949 16004 ft 215 kts 183°
2026-04-28 18:23 51.40070 5.58831 16691 ft 217 kts 179°
2026-04-28 18:23 51.38552 5.58851 17363 ft 218 kts 177°
2026-04-28 18:23 51.37051 5.58960 18157 ft 214 kts 175°
2026-04-28 18:23 51.35573 5.59122 18846 ft 213 kts 174°
2026-04-28 18:24 51.34087 5.59321 19458 ft 213 kts 174°
2026-04-28 18:24 51.33087 5.59469 19862 ft 214 kts 173°
2026-04-28 18:24 51.31107 5.59784 20641 ft 217 kts 173°
2026-04-28 18:24 51.29600 5.60034 21248 ft 218 kts 172°
2026-04-28 18:25 51.28082 5.60294 21827 ft 221 kts 173°
2026-04-28 18:25 51.26550 5.60558 22400 ft 223 kts 173°
2026-04-28 18:25 51.25002 5.60827 22964 ft 225 kts 173°
2026-04-28 18:26 51.21866 5.61375 24010 ft 228 kts 172°
2026-04-28 18:26 51.20284 5.61653 24454 ft 230 kts 172°
2026-04-28 18:26 51.18702 5.61930 24951 ft 228 kts 173°
2026-04-28 18:26 51.17114 5.62209 25358 ft 231 kts 173°
2026-04-28 18:27 51.15499 5.62492 25721 ft 234 kts 173°
2026-04-28 18:27 51.13874 5.62776 26122 ft 236 kts 173°
2026-04-28 18:27 51.12242 5.63061 26558 ft 236 kts 173°
2026-04-28 18:27 51.10613 5.63345 26941 ft 238 kts 173°
2026-04-28 18:28 51.08945 5.63635 27161 ft 247 kts 173°
2026-04-28 18:28 51.07205 5.63938 27192 ft 255 kts 173°
2026-04-28 18:28 51.05444 5.64243 27189 ft 259 kts 173°
2026-04-28 18:28 51.03597 5.64563 27189 ft 273 kts 173°
2026-04-28 18:29 51.01690 5.64894 27186 ft 285 kts 174°
2026-04-28 18:29 50.99680 5.65241 27180 ft 295 kts 174°
2026-04-28 18:29 50.97581 5.65603 27181 ft 304 kts 174°
2026-04-28 18:29 50.95483 5.65815 27176 ft 310 kts 186°
2026-04-28 18:30 50.93441 5.64713 27177 ft 316 kts 212°
2026-04-28 18:30 50.92831 5.64030 27175 ft 318 kts 217°
2026-04-28 18:30 50.89823 5.60684 27173 ft 323 kts 198°
2026-04-28 18:30 50.87607 5.60317 27179 ft 324 kts 171°
2026-04-28 18:31 50.85463 5.61417 27177 ft 326 kts 157°
2026-04-28 18:31 50.83365 5.62830 27173 ft 329 kts 158°
2026-04-28 18:31 50.81239 5.64189 27170 ft 331 kts 159°
2026-04-28 18:31 50.79085 5.65536 27174 ft 333 kts 159°
2026-04-28 18:32 50.76922 5.66874 27172 ft 335 kts 159°
2026-04-28 18:32 50.74746 5.68211 27171 ft 336 kts 159°
2026-04-28 18:32 50.72576 5.69541 27170 ft 337 kts 160°
2026-04-28 18:32 50.70389 5.70877 27168 ft 338 kts 160°
2026-04-28 18:33 50.68214 5.72203 27167 ft 339 kts 160°
2026-04-28 18:33 50.66013 5.73544 27167 ft 339 kts 161°
2026-04-28 18:33 50.63811 5.74884 27162 ft 339 kts 161°
2026-04-28 18:33 50.61615 5.76218 27152 ft 336 kts 161°
2026-04-28 18:34 50.59442 5.77537 27152 ft 334 kts 160°
2026-04-28 18:34 50.57271 5.78853 27151 ft 336 kts 160°
2026-04-28 18:34 50.55090 5.80174 27151 ft 337 kts 160°
2026-04-28 18:34 50.52904 5.81498 27146 ft 336 kts 161°
2026-04-28 18:35 50.50729 5.82813 27150 ft 335 kts 161°
2026-04-28 18:35 50.48551 5.84129 27147 ft 336 kts 162°
2026-04-28 18:35 50.46364 5.85447 27152 ft 337 kts 161°
2026-04-28 18:35 50.44178 5.86766 27141 ft 337 kts 162°
2026-04-28 18:36 50.41989 5.88084 27139 ft 336 kts 162°
2026-04-28 18:36 50.39806 5.89397 27145 ft 336 kts 162°
2026-04-28 18:36 50.37623 5.90709 27144 ft 336 kts 162°
2026-04-28 18:36 50.35449 5.92012 27132 ft 336 kts 161°
2026-04-28 18:37 50.33256 5.93329 27142 ft 337 kts 162°
2026-04-28 18:37 50.31066 5.94641 27137 ft 337 kts 161°
2026-04-28 18:37 50.28885 5.95949 27139 ft 336 kts 163°
2026-04-28 18:37 50.26693 5.97259 27135 ft 336 kts 162°
2026-04-28 18:38 50.24507 5.98564 27126 ft 338 kts 163°
2026-04-28 18:38 50.22310 5.99874 27136 ft 339 kts 162°
2026-04-28 18:38 50.20101 6.01191 27135 ft 340 kts 162°
2026-04-28 18:38 50.17922 6.02489 27135 ft 340 kts 162°
2026-04-28 18:39 50.15716 6.03802 27129 ft 339 kts 162°
2026-04-28 18:39 50.13538 6.05097 27134 ft 340 kts 162°
2026-04-28 18:39 50.11473 6.06323 27134 ft 340 kts 162°
2026-04-28 18:39 50.09465 6.07515 27134 ft 340 kts 162°
2026-04-28 18:40 50.07280 6.08811 27127 ft 340 kts 162°
2026-04-28 18:40 50.05146 6.10074 27128 ft 340 kts 162°
2026-04-28 18:40 50.03003 6.11342 27123 ft 340 kts 163°
2026-04-28 18:40 50.00826 6.12629 27127 ft 340 kts 163°
2026-04-28 18:41 49.98630 6.13925 27123 ft 340 kts 163°
2026-04-28 18:41 49.96407 6.15236 27123 ft 340 kts 163°
2026-04-28 18:41 49.94196 6.16539 27125 ft 340 kts 163°
2026-04-28 18:41 49.92001 6.17831 27123 ft 340 kts 163°
2026-04-28 18:42 49.89787 6.19133 27119 ft 340 kts 163°
2026-04-28 18:42 49.87578 6.20431 27117 ft 340 kts 163°
2026-04-28 18:42 49.85366 6.21730 27114 ft 340 kts 163°
2026-04-28 18:42 49.83155 6.23027 27120 ft 340 kts 163°
2026-04-28 18:43 49.80939 6.24325 27116 ft 340 kts 163°
2026-04-28 18:43 49.78734 6.25616 27110 ft 340 kts 163°
2026-04-28 18:43 49.76521 6.26909 27119 ft 340 kts 163°
2026-04-28 18:43 49.74306 6.28203 27119 ft 340 kts 163°
2026-04-28 18:44 49.72090 6.29496 27117 ft 340 kts 163°
2026-04-28 18:44 49.67666 6.32074 27115 ft 341 kts 163°
2026-04-28 18:44 49.65446 6.33365 27117 ft 341 kts 163°
2026-04-28 18:45 49.63220 6.34659 27122 ft 341 kts 163°
2026-04-28 18:45 49.61025 6.35934 27116 ft 341 kts 163°
2026-04-28 18:45 49.58806 6.37221 27116 ft 341 kts 163°
2026-04-28 18:45 49.56584 6.38509 27107 ft 341 kts 164°
2026-04-28 18:46 49.55114 6.39361 27112 ft 341 kts 164°
2026-04-28 18:46 49.52894 6.40645 27114 ft 341 kts 164°
2026-04-28 18:46 49.50677 6.41927 27111 ft 341 kts 164°
2026-04-28 18:46 49.48455 6.43210 27106 ft 341 kts 164°
2026-04-28 18:47 49.46232 6.44493 27105 ft 341 kts 164°
2026-04-28 18:47 49.44013 6.45771 27105 ft 341 kts 164°
2026-04-28 18:47 49.41791 6.47051 27096 ft 341 kts 164°
2026-04-28 18:47 49.39574 6.48326 27094 ft 341 kts 164°
2026-04-28 18:48 49.37348 6.49606 27092 ft 341 kts 164°
2026-04-28 18:48 49.35131 6.50879 27090 ft 341 kts 164°
2026-04-28 18:48 49.32911 6.52152 27069 ft 340 kts 165°
2026-04-28 18:48 49.30692 6.53423 27079 ft 340 kts 165°
2026-04-28 18:49 49.28474 6.54693 27081 ft 340 kts 165°
2026-04-28 18:49 49.27005 6.55533 27078 ft 340 kts 165°
2026-04-28 18:49 49.24043 6.57226 27072 ft 340 kts 165°
2026-04-28 18:49 49.21825 6.58493 27071 ft 340 kts 165°
2026-04-28 18:50 49.19620 6.59750 27070 ft 340 kts 165°
2026-04-28 18:50 49.17447 6.60988 27071 ft 339 kts 165°
2026-04-28 18:50 49.15225 6.62253 27069 ft 340 kts 165°
2026-04-28 18:50 49.13012 6.63511 27069 ft 340 kts 165°
2026-04-28 18:51 49.10752 6.64796 27052 ft 340 kts 167°
2026-04-28 18:51 49.08589 6.66025 27072 ft 339 kts 168°
2026-04-28 18:51 49.06374 6.67279 27067 ft 339 kts 168°
2026-04-28 18:51 49.04164 6.68531 27067 ft 339 kts 168°
2026-04-28 18:52 49.01952 6.69782 27062 ft 339 kts 168°
2026-04-28 18:52 48.99715 6.70765 27060 ft 331 kts 177°
2026-04-28 18:52 48.97452 6.71211 27060 ft 326 kts 184°
2026-04-28 18:52 48.95198 6.71287 27052 ft 323 kts 187°
2026-04-28 18:53 48.92948 6.71269 27067 ft 323 kts 188°
2026-04-28 18:53 48.90698 6.71221 27056 ft 323 kts 188°
2026-04-28 18:53 48.88446 6.71154 27016 ft 324 kts 188°
2026-04-28 18:53 48.86188 6.71077 27050 ft 324 kts 188°
2026-04-28 18:54 48.83924 6.70996 27061 ft 326 kts 188°
2026-04-28 18:54 48.81651 6.70911 27058 ft 327 kts 188°
2026-04-28 18:54 48.79371 6.70825 27056 ft 329 kts 188°
2026-04-28 18:54 48.77088 6.70739 27060 ft 329 kts 188°
2026-04-28 18:55 48.74793 6.70651 27056 ft 330 kts 188°
2026-04-28 18:55 48.72487 6.70563 27059 ft 331 kts 188°
2026-04-28 18:55 48.70216 6.70475 27057 ft 331 kts 188°
2026-04-28 18:55 48.67882 6.70386 27057 ft 332 kts 188°
2026-04-28 18:56 48.65574 6.70298 27057 ft 332 kts 188°
2026-04-28 18:56 48.63294 6.70211 27056 ft 332 kts 188°
2026-04-28 18:56 48.60950 6.70122 27054 ft 333 kts 188°
2026-04-28 18:56 48.58671 6.70034 27055 ft 333 kts 188°
2026-04-28 18:57 48.56364 6.69946 27054 ft 333 kts 188°
2026-04-28 18:57 48.54046 6.69857 27050 ft 333 kts 188°
2026-04-28 18:57 48.51732 6.69769 27050 ft 333 kts 188°
2026-04-28 18:57 48.49414 6.69680 27053 ft 333 kts 188°
2026-04-28 18:58 48.47089 6.69591 27047 ft 333 kts 188°
2026-04-28 18:58 48.44772 6.69504 27043 ft 333 kts 188°
2026-04-28 18:58 48.42454 6.69415 27052 ft 333 kts 188°
2026-04-28 18:58 48.40140 6.69326 27052 ft 333 kts 188°
2026-04-28 18:59 48.37825 6.69238 27052 ft 333 kts 188°
2026-04-28 18:59 48.35508 6.69150 27050 ft 333 kts 188°
2026-04-28 18:59 48.33195 6.69062 27051 ft 333 kts 188°
2026-04-28 18:59 48.30881 6.68973 27052 ft 333 kts 188°
2026-04-28 19:00 48.28567 6.68885 27051 ft 333 kts 188°
2026-04-28 19:00 48.26259 6.68797 27056 ft 333 kts 188°
2026-04-28 19:00 48.23971 6.68709 27041 ft 332 kts 188°
2026-04-28 19:00 48.21679 6.68623 27061 ft 331 kts 188°
2026-04-28 19:01 48.19376 6.68549 27056 ft 332 kts 186°
2026-04-28 19:01 48.17074 6.69222 27055 ft 347 kts 165°
2026-04-28 19:01 48.15020 6.71235 27054 ft 363 kts 142°
2026-04-28 19:01 48.13347 6.74106 27059 ft 368 kts 134°
2026-04-28 19:02 48.11777 6.77142 27058 ft 369 kts 133°
2026-04-28 19:02 48.10246 6.80224 27057 ft 369 kts 132°
2026-04-28 19:02 48.08731 6.83331 27051 ft 369 kts 131°
2026-04-28 19:02 48.07231 6.86433 27056 ft 369 kts 131°
2026-04-28 19:03 48.05732 6.89540 27064 ft 369 kts 131°
2026-04-28 19:03 48.04236 6.92639 27051 ft 368 kts 131°
2026-04-28 19:03 48.02754 6.95711 27054 ft 368 kts 131°
2026-04-28 19:03 48.01259 6.98804 27060 ft 368 kts 131°
2026-04-28 19:04 47.99765 7.01894 27058 ft 367 kts 131°
2026-04-28 19:04 47.98269 7.04986 27057 ft 366 kts 131°
2026-04-28 19:04 47.96784 7.08050 27085 ft 364 kts 131°
2026-04-28 19:04 47.95320 7.11066 27046 ft 363 kts 131°
2026-04-28 19:05 47.93840 7.14111 27062 ft 362 kts 131°
2026-04-28 19:05 47.92367 7.17141 27076 ft 361 kts 131°
2026-04-28 19:05 47.90915 7.20119 27058 ft 362 kts 131°
2026-04-28 19:05 47.89434 7.23155 27059 ft 363 kts 131°
2026-04-28 19:06 47.87942 7.26211 27061 ft 364 kts 131°
2026-04-28 19:06 47.86933 7.28276 27062 ft 365 kts 131°
2026-04-28 19:06 47.84951 7.32328 27057 ft 367 kts 131°
2026-04-28 19:06 47.83448 7.35398 27052 ft 367 kts 131°
2026-04-28 19:07 47.81940 7.38471 27053 ft 368 kts 131°
2026-04-28 19:07 47.80429 7.41549 27051 ft 369 kts 131°
2026-04-28 19:07 47.78913 7.44633 27047 ft 369 kts 131°
2026-04-28 19:07 47.77411 7.47686 27054 ft 369 kts 131°
2026-04-28 19:08 47.75895 7.50764 27064 ft 369 kts 131°
2026-04-28 19:08 47.74377 7.53841 27067 ft 369 kts 131°
2026-04-28 19:08 47.72848 7.56913 27070 ft 370 kts 132°
2026-04-28 19:08 47.71309 7.59976 27063 ft 370 kts 131°
2026-04-28 19:09 47.69776 7.63052 27067 ft 371 kts 131°
2026-04-28 19:09 47.68255 7.66116 27068 ft 372 kts 131°
2026-04-28 19:09 47.66721 7.69210 27065 ft 372 kts 131°
2026-04-28 19:09 47.65194 7.72289 27063 ft 372 kts 131°
2026-04-28 19:10 47.63684 7.75330 27067 ft 372 kts 131°
2026-04-28 19:10 47.62146 7.78424 27067 ft 373 kts 131°
2026-04-28 19:10 47.60610 7.81511 27067 ft 373 kts 131°
2026-04-28 19:10 47.59068 7.84605 27068 ft 373 kts 131°
2026-04-28 19:11 47.57849 7.87049 27065 ft 373 kts 131°
2026-04-28 19:11 47.56621 7.89508 27067 ft 373 kts 131°
2026-04-28 19:11 47.55078 7.92596 27070 ft 373 kts 131°
2026-04-28 19:11 47.53837 7.95076 27069 ft 373 kts 131°
2026-04-28 19:12 47.52290 7.98165 27053 ft 373 kts 131°
2026-04-28 19:12 47.50745 8.01246 27066 ft 372 kts 131°
2026-04-28 19:12 47.49202 8.04320 27077 ft 373 kts 131°
2026-04-28 19:12 47.47969 8.06772 27070 ft 373 kts 131°
2026-04-28 19:13 47.46944 8.08810 27069 ft 373 kts 131°
2026-04-28 19:13 47.45512 8.11655 27074 ft 373 kts 131°
2026-04-28 19:13 47.43965 8.14721 27067 ft 373 kts 131°
2026-04-28 19:13 47.42396 8.17830 27074 ft 372 kts 131°
2026-04-28 19:14 47.40869 8.20856 27069 ft 373 kts 131°
2026-04-28 19:14 47.39314 8.23932 27071 ft 373 kts 131°
2026-04-28 19:14 47.37763 8.26995 27070 ft 373 kts 131°
2026-04-28 19:14 47.36210 8.30059 27067 ft 372 kts 131°
2026-04-28 19:15 47.34662 8.33109 27065 ft 372 kts 131°
2026-04-28 19:15 47.33117 8.36149 27070 ft 372 kts 131°
2026-04-28 19:15 47.31563 8.39203 27077 ft 373 kts 131°
2026-04-28 19:15 47.30529 8.41233 27073 ft 373 kts 131°
2026-04-28 19:16 47.28434 8.45302 27101 ft 372 kts 135°
2026-04-28 19:16 47.26540 8.47812 27102 ft 362 kts 152°
2026-04-28 19:16 47.24330 8.49450 27100 ft 352 kts 168°
2026-04-28 19:16 47.21991 8.50242 27105 ft 345 kts 177°
2026-04-28 19:17 47.19623 8.50764 27101 ft 344 kts 179°
2026-04-28 19:17 47.17247 8.51201 27096 ft 343 kts 180°
2026-04-28 19:17 47.14874 8.51590 27096 ft 343 kts 180°
2026-04-28 19:17 47.12502 8.51956 27092 ft 343 kts 181°
2026-04-28 19:18 47.10118 8.52312 27084 ft 344 kts 181°
2026-04-28 19:18 47.07735 8.52663 27082 ft 344 kts 181°
2026-04-28 19:18 47.05351 8.53011 27069 ft 344 kts 180°
2026-04-28 19:18 47.02967 8.53358 27081 ft 343 kts 181°
2026-04-28 19:19 47.00596 8.53700 27089 ft 342 kts 181°
2026-04-28 19:19 46.98223 8.54042 27086 ft 343 kts 181°
2026-04-28 19:19 46.95851 8.54384 27098 ft 343 kts 181°
2026-04-28 19:19 46.93534 8.54717 27100 ft 343 kts 181°
2026-04-28 19:20 46.91161 8.55059 27095 ft 344 kts 181°
2026-04-28 19:20 46.88772 8.55402 27088 ft 342 kts 181°
2026-04-28 19:20 46.86435 8.55739 27120 ft 342 kts 181°
2026-04-28 19:20 46.84071 8.56079 27041 ft 337 kts 180°
2026-04-28 19:21 46.81748 8.56413 27136 ft 336 kts 180°
2026-04-28 19:21 46.79412 8.56746 27109 ft 338 kts 180°
2026-04-28 19:21 46.77066 8.57082 27103 ft 339 kts 180°
2026-04-28 19:21 46.74705 8.57419 27097 ft 341 kts 180°
2026-04-28 19:22 46.72359 8.57755 27116 ft 341 kts 180°
2026-04-28 19:22 46.71559 8.57869 27114 ft 341 kts 180°
2026-04-28 19:22 46.67633 8.58429 27109 ft 341 kts 180°
2026-04-28 19:22 46.65263 8.58767 27118 ft 342 kts 180°
2026-04-28 19:23 46.62896 8.59104 27131 ft 342 kts 180°
2026-04-28 19:23 46.60530 8.59441 27137 ft 342 kts 180°
2026-04-28 19:23 46.58162 8.59777 27133 ft 343 kts 180°
2026-04-28 19:23 46.55787 8.60112 27133 ft 343 kts 180°
2026-04-28 19:24 46.53434 8.60445 27131 ft 343 kts 180°
2026-04-28 19:24 46.51063 8.60781 27133 ft 342 kts 180°
2026-04-28 19:24 46.48657 8.61122 27137 ft 341 kts 180°
2026-04-28 19:24 46.46332 8.61452 27132 ft 339 kts 180°
2026-04-28 19:25 46.43983 8.61785 27141 ft 338 kts 180°
2026-04-28 19:25 46.41647 8.62114 27153 ft 338 kts 180°
2026-04-28 19:25 46.39300 8.62444 27106 ft 339 kts 180°
2026-04-28 19:25 46.36950 8.62776 27111 ft 339 kts 180°
2026-04-28 19:26 46.34638 8.63102 27120 ft 339 kts 180°
2026-04-28 19:26 46.32290 8.63433 27107 ft 340 kts 180°
2026-04-28 19:26 46.29931 8.63764 27097 ft 340 kts 180°
2026-04-28 19:26 46.27577 8.64094 27048 ft 338 kts 180°
2026-04-28 19:27 46.25248 8.64426 27112 ft 336 kts 180°
2026-04-28 19:27 46.22922 8.64751 27105 ft 337 kts 180°
2026-04-28 19:27 46.20592 8.65076 27091 ft 337 kts 180°
2026-04-28 19:27 46.18259 8.65403 27102 ft 337 kts 180°
2026-04-28 19:28 46.15923 8.65730 27093 ft 338 kts 180°
2026-04-28 19:28 46.13578 8.66058 27095 ft 339 kts 179°
2026-04-28 19:28 46.11245 8.66708 27089 ft 344 kts 169°
2026-04-28 19:28 46.08975 8.67872 27093 ft 348 kts 161°
2026-04-28 19:29 46.06794 8.69341 27086 ft 349 kts 159°
2026-04-28 19:29 46.05358 8.70357 27090 ft 349 kts 159°
2026-04-28 19:29 46.03184 8.71930 27085 ft 350 kts 158°
2026-04-28 19:29 46.00359 8.74010 27088 ft 350 kts 158°
2026-04-28 19:30 45.98197 8.75611 27092 ft 350 kts 157°
2026-04-28 19:30 45.96026 8.77223 27091 ft 351 kts 157°
2026-04-28 19:30 45.93855 8.78835 27091 ft 352 kts 157°
2026-04-28 19:30 45.91680 8.80449 27092 ft 352 kts 157°
2026-04-28 19:31 45.89500 8.82063 27091 ft 353 kts 158°
2026-04-28 19:31 45.87308 8.83644 27086 ft 352 kts 158°
2026-04-28 19:31 45.85838 8.84661 27084 ft 351 kts 160°
2026-04-28 19:31 45.83606 8.86068 27084 ft 350 kts 161°
2026-04-28 19:32 45.81371 8.87476 27076 ft 350 kts 160°
2026-04-28 19:32 45.79147 8.88890 27078 ft 350 kts 160°
2026-04-28 19:32 45.76926 8.90305 27074 ft 349 kts 160°
2026-04-28 19:32 45.74732 8.91704 27073 ft 349 kts 160°
2026-04-28 19:33 45.72513 8.93118 27066 ft 349 kts 160°
2026-04-28 19:33 45.70299 8.94529 27062 ft 349 kts 160°
2026-04-28 19:33 45.68081 8.95942 27041 ft 349 kts 160°
2026-04-28 19:33 45.65867 8.97350 27040 ft 349 kts 160°
2026-04-28 19:34 45.63682 8.98739 27037 ft 348 kts 160°
2026-04-28 19:34 45.61436 9.00165 27034 ft 348 kts 160°
2026-04-28 19:34 45.59227 9.01567 27032 ft 348 kts 160°
2026-04-28 19:34 45.57045 9.02950 27035 ft 348 kts 160°
2026-04-28 19:35 45.54833 9.04351 27042 ft 348 kts 160°
2026-04-28 19:35 45.52630 9.05745 27036 ft 348 kts 160°
2026-04-28 19:35 45.50414 9.07146 27034 ft 348 kts 160°
2026-04-28 19:35 45.48201 9.08544 27038 ft 348 kts 160°
2026-04-28 19:36 45.45990 9.09940 27036 ft 348 kts 160°
2026-04-28 19:36 45.43774 9.11336 27035 ft 348 kts 160°
2026-04-28 19:36 45.41560 9.12731 27041 ft 348 kts 160°
2026-04-28 19:36 45.39366 9.14113 27030 ft 348 kts 161°
2026-04-28 19:37 45.37151 9.15506 27037 ft 347 kts 161°
2026-04-28 19:37 45.35664 9.16441 27036 ft 347 kts 161°
2026-04-28 19:37 45.32734 9.18280 27037 ft 347 kts 161°
2026-04-28 19:37 45.30526 9.19665 27032 ft 347 kts 161°
2026-04-28 19:38 45.28320 9.21048 27031 ft 347 kts 161°
2026-04-28 19:38 45.26116 9.22427 27030 ft 347 kts 161°
2026-04-28 19:38 45.23910 9.23807 27034 ft 346 kts 161°
2026-04-28 19:38 45.21701 9.25188 27024 ft 346 kts 161°
2026-04-28 19:39 45.19492 9.26568 27022 ft 346 kts 161°
2026-04-28 19:39 45.17286 9.27944 27020 ft 346 kts 160°
2026-04-28 19:39 45.15084 9.29317 27020 ft 346 kts 160°
2026-04-28 19:39 45.12875 9.30693 27020 ft 346 kts 160°
2026-04-28 19:40 45.10665 9.32068 27017 ft 347 kts 160°
2026-04-28 19:40 45.08461 9.33439 27016 ft 347 kts 161°
2026-04-28 19:40 45.06248 9.34814 27029 ft 347 kts 161°
2026-04-28 19:40 45.04113 9.36139 27026 ft 347 kts 161°
2026-04-28 19:41 45.01905 9.37509 27014 ft 347 kts 161°
2026-04-28 19:41 44.99691 9.38881 27002 ft 347 kts 160°
2026-04-28 19:41 44.97479 9.40250 27010 ft 347 kts 160°
2026-04-28 19:41 44.95266 9.41619 26994 ft 348 kts 160°
2026-04-28 19:42 44.93047 9.42991 27007 ft 348 kts 160°
2026-04-28 19:42 44.90834 9.44358 27005 ft 348 kts 160°
2026-04-28 19:42 44.88608 9.45731 27007 ft 349 kts 160°
2026-04-28 19:42 44.87107 9.46657 26989 ft 349 kts 160°
2026-04-28 19:43 44.84163 9.48471 26998 ft 349 kts 160°
2026-04-28 19:43 44.81936 9.49841 26990 ft 350 kts 160°
2026-04-28 19:43 44.79708 9.51211 27004 ft 350 kts 160°
2026-04-28 19:43 44.77475 9.52584 26998 ft 350 kts 160°
2026-04-28 19:44 44.75243 9.53954 27009 ft 350 kts 161°
2026-04-28 19:44 44.73015 9.55320 27010 ft 349 kts 160°
2026-04-28 19:44 44.70788 9.56685 27013 ft 349 kts 160°
2026-04-28 19:44 44.68565 9.58046 27018 ft 350 kts 160°
2026-04-28 19:45 44.66336 9.59410 27025 ft 350 kts 160°
2026-04-28 19:45 44.64103 9.60775 27028 ft 350 kts 160°
2026-04-28 19:45 44.61870 9.62139 27031 ft 350 kts 161°
2026-04-28 19:45 44.59637 9.63502 27037 ft 350 kts 161°
2026-04-28 19:46 44.57403 9.64864 27041 ft 350 kts 161°
2026-04-28 19:46 44.55168 9.66226 27038 ft 350 kts 161°
2026-04-28 19:46 44.52940 9.67582 27046 ft 348 kts 161°
2026-04-28 19:46 44.50721 9.68932 27059 ft 348 kts 161°
2026-04-28 19:47 44.48504 9.70279 27051 ft 348 kts 161°
2026-04-28 19:47 44.46308 9.71612 27049 ft 348 kts 161°
2026-04-28 19:47 44.44080 9.72963 27051 ft 348 kts 161°
2026-04-28 19:47 44.41856 9.74312 27059 ft 349 kts 161°
2026-04-28 19:48 44.39626 9.75662 27055 ft 349 kts 161°
2026-04-28 19:48 44.37396 9.77012 27057 ft 349 kts 161°
2026-04-28 19:48 44.35165 9.78360 27055 ft 349 kts 161°
2026-04-28 19:48 44.32942 9.79703 27066 ft 349 kts 161°
2026-04-28 19:49 44.30713 9.81049 27055 ft 349 kts 161°
2026-04-28 19:49 44.28482 9.82395 27052 ft 349 kts 161°
2026-04-28 19:49 44.26259 9.83735 27076 ft 348 kts 161°
2026-04-28 19:49 44.24031 9.85075 27074 ft 349 kts 161°
2026-04-28 19:50 44.19565 9.87761 27065 ft 350 kts 161°
2026-04-28 19:50 44.17325 9.89106 27062 ft 351 kts 161°
2026-04-28 19:50 44.15083 9.90452 27063 ft 350 kts 161°
2026-04-28 19:51 44.12841 9.91796 27064 ft 350 kts 161°
2026-04-28 19:51 44.10603 9.93137 27064 ft 350 kts 161°
2026-04-28 19:51 44.08365 9.94477 27062 ft 350 kts 161°
2026-04-28 19:51 44.06125 9.95817 27065 ft 350 kts 161°
2026-04-28 19:52 44.03886 9.97155 27067 ft 350 kts 161°
2026-04-28 19:52 44.01654 9.98487 27065 ft 350 kts 161°
2026-04-28 19:52 43.99412 9.99825 27065 ft 350 kts 161°
2026-04-28 19:52 43.97172 10.01161 27056 ft 350 kts 161°
2026-04-28 19:53 43.94950 10.02484 27069 ft 350 kts 161°
2026-04-28 19:53 43.92714 10.03815 27069 ft 350 kts 161°
2026-04-28 19:53 43.90479 10.05144 27072 ft 350 kts 161°
2026-04-28 19:53 43.88273 10.06455 27071 ft 350 kts 161°
2026-04-28 19:54 43.86038 10.07782 27071 ft 350 kts 161°
2026-04-28 19:54 43.83807 10.09105 27071 ft 350 kts 161°
2026-04-28 19:54 43.81572 10.10430 27071 ft 350 kts 161°
2026-04-28 19:54 43.79333 10.11756 27074 ft 350 kts 161°
2026-04-28 19:55 43.77099 10.13078 27065 ft 349 kts 161°
2026-04-28 19:55 43.74864 10.14400 27075 ft 349 kts 161°
2026-04-28 19:55 43.72627 10.15721 27076 ft 349 kts 161°
2026-04-28 19:55 43.70393 10.17040 27075 ft 349 kts 161°
2026-04-28 19:56 43.68164 10.18354 27074 ft 349 kts 161°
2026-04-28 19:56 43.65930 10.19671 27075 ft 349 kts 161°
2026-04-28 19:56 43.63696 10.20986 27072 ft 349 kts 160°
2026-04-28 19:56 43.61462 10.22301 27075 ft 349 kts 161°
2026-04-28 19:57 43.59231 10.23612 27080 ft 350 kts 161°
2026-04-28 19:57 43.56982 10.24934 27078 ft 350 kts 161°
2026-04-28 19:57 43.54756 10.26241 27075 ft 350 kts 160°
2026-04-28 19:57 43.52511 10.27557 27076 ft 350 kts 160°
2026-04-28 19:58 43.50277 10.28866 27080 ft 350 kts 160°
2026-04-28 19:58 43.48038 10.30177 27081 ft 350 kts 160°
2026-04-28 19:58 43.45795 10.31490 27081 ft 350 kts 160°
2026-04-28 19:58 43.43554 10.32800 27081 ft 350 kts 160°
2026-04-28 19:59 43.41320 10.34105 27081 ft 350 kts 160°
2026-04-28 19:59 43.39072 10.35416 27081 ft 350 kts 160°
2026-04-28 19:59 43.36832 10.36723 27081 ft 350 kts 160°
2026-04-28 19:59 43.34595 10.38026 27077 ft 350 kts 160°
2026-04-28 20:00 43.32354 10.39331 27082 ft 350 kts 160°
2026-04-28 20:00 43.30116 10.40633 27084 ft 349 kts 160°
2026-04-28 20:00 43.27881 10.41932 27084 ft 350 kts 160°
2026-04-28 20:00 43.25663 10.43220 27087 ft 350 kts 160°
2026-04-28 20:01 43.23434 10.44514 27086 ft 350 kts 160°
2026-04-28 20:01 43.21191 10.45814 27083 ft 350 kts 160°
2026-04-28 20:01 43.18956 10.47110 27081 ft 350 kts 160°
2026-04-28 20:01 43.16721 10.48404 27081 ft 350 kts 160°
2026-04-28 20:02 43.14480 10.49700 27069 ft 350 kts 160°
2026-04-28 20:02 43.12241 10.50994 27080 ft 349 kts 160°
2026-04-28 20:02 43.10004 10.52287 27081 ft 349 kts 160°
2026-04-28 20:02 43.07768 10.53577 27082 ft 349 kts 160°
2026-04-28 20:03 43.05532 10.54866 27082 ft 349 kts 160°
2026-04-28 20:03 43.03288 10.56159 27081 ft 349 kts 160°
2026-04-28 20:03 43.01050 10.57448 27084 ft 349 kts 160°
2026-04-28 20:03 42.98815 10.58733 27084 ft 349 kts 160°
2026-04-28 20:04 42.96585 10.60015 27084 ft 350 kts 160°
2026-04-28 20:04 42.94338 10.61306 27083 ft 350 kts 160°
2026-04-28 20:04 42.92092 10.62595 27078 ft 350 kts 160°
2026-04-28 20:04 42.89854 10.63878 27084 ft 349 kts 160°
2026-04-28 20:05 42.87613 10.65162 27083 ft 349 kts 160°
2026-04-28 20:05 42.85380 10.66441 27080 ft 349 kts 160°
2026-04-28 20:05 42.83142 10.67721 27080 ft 349 kts 160°
2026-04-28 20:05 42.80903 10.69001 27078 ft 349 kts 160°
2026-04-28 20:06 42.78662 10.70281 27077 ft 349 kts 160°
2026-04-28 20:06 42.76418 10.71562 27076 ft 349 kts 160°
2026-04-28 20:06 42.74176 10.72840 27077 ft 349 kts 160°
2026-04-28 20:06 42.71937 10.74116 27065 ft 349 kts 160°
2026-04-28 20:07 42.69692 10.75395 27073 ft 349 kts 160°
2026-04-28 20:07 42.68207 10.76240 27072 ft 349 kts 160°
2026-04-28 20:07 42.65210 10.77944 27073 ft 349 kts 160°
2026-04-28 20:07 42.62972 10.79215 27075 ft 349 kts 160°
2026-04-28 20:08 42.60732 10.80487 27074 ft 349 kts 160°
2026-04-28 20:08 42.58495 10.81755 27075 ft 349 kts 160°
2026-04-28 20:08 42.56252 10.83026 27074 ft 349 kts 160°
2026-04-28 20:08 42.54011 10.84296 27086 ft 349 kts 160°
2026-04-28 20:09 42.51773 10.85562 27079 ft 349 kts 160°
2026-04-28 20:09 42.49554 10.86817 27071 ft 349 kts 160°
2026-04-28 20:09 42.47321 10.88078 27086 ft 349 kts 160°
2026-04-28 20:09 42.45086 10.89340 27079 ft 349 kts 160°
2026-04-28 20:10 42.42849 10.90602 27078 ft 349 kts 160°
2026-04-28 20:10 42.40635 10.91850 27089 ft 348 kts 160°
2026-04-28 20:10 42.38399 10.93109 27088 ft 348 kts 160°
2026-04-28 20:10 42.36157 10.94370 27091 ft 348 kts 160°
2026-04-28 20:11 42.33925 10.95626 27084 ft 348 kts 160°
2026-04-28 20:11 42.31681 10.96887 27086 ft 348 kts 160°
2026-04-28 20:11 42.29449 10.98140 27077 ft 348 kts 160°
2026-04-28 20:11 42.27206 10.99398 27088 ft 348 kts 160°
2026-04-28 20:12 42.24971 11.00651 27088 ft 348 kts 160°
2026-04-28 20:12 42.22730 11.01906 27088 ft 348 kts 160°
2026-04-28 20:12 42.20494 11.03158 27080 ft 348 kts 160°
2026-04-28 20:12 42.19009 11.03989 27086 ft 348 kts 160°
2026-04-28 20:13 42.16019 11.05660 27091 ft 348 kts 160°
2026-04-28 20:13 42.13784 11.06908 27085 ft 348 kts 160°
2026-04-28 20:13 42.11549 11.08155 27089 ft 348 kts 160°
2026-04-28 20:13 42.09306 11.09406 27078 ft 348 kts 160°
2026-04-28 20:14 42.07066 11.10654 27070 ft 348 kts 160°
2026-04-28 20:14 42.04831 11.11898 27084 ft 348 kts 160°
2026-04-28 20:14 42.02593 11.13143 27080 ft 348 kts 160°
2026-04-28 20:14 42.00354 11.14388 27086 ft 348 kts 160°
2026-04-28 20:15 41.98871 11.15212 27086 ft 348 kts 160°
2026-04-28 20:15 41.96645 11.16447 27080 ft 348 kts 160°
2026-04-28 20:15 41.94409 11.17688 27084 ft 348 kts 160°
2026-04-28 20:15 41.92168 11.18930 27080 ft 348 kts 160°
2026-04-28 20:16 41.89933 11.20168 27087 ft 348 kts 160°
2026-04-28 20:16 41.86969 11.21808 27085 ft 348 kts 160°
2026-04-28 20:16 41.85458 11.22644 27077 ft 348 kts 160°
2026-04-28 20:16 41.83225 11.23878 27081 ft 348 kts 160°
2026-04-28 20:17 41.80989 11.25113 27079 ft 347 kts 160°
2026-04-28 20:17 41.78754 11.26346 27088 ft 347 kts 160°
2026-04-28 20:17 41.76521 11.27577 27087 ft 347 kts 160°
2026-04-28 20:17 41.74295 11.28803 27086 ft 347 kts 160°
2026-04-28 20:18 41.72061 11.30033 27087 ft 347 kts 160°
2026-04-28 20:18 41.69822 11.31265 27076 ft 347 kts 160°
2026-04-28 20:18 41.67588 11.32493 27086 ft 347 kts 160°
2026-04-28 20:18 41.65352 11.33721 27083 ft 348 kts 160°
2026-04-28 20:19 41.63117 11.34948 27078 ft 348 kts 160°
2026-04-28 20:19 41.60880 11.36175 27084 ft 347 kts 160°
2026-04-28 20:19 41.58646 11.37399 27084 ft 347 kts 160°
2026-04-28 20:19 41.56411 11.38623 27086 ft 347 kts 160°
2026-04-28 20:20 41.54173 11.39848 27084 ft 347 kts 160°
2026-04-28 20:20 41.51938 11.41070 27082 ft 347 kts 160°
2026-04-28 20:20 41.49729 11.42277 27080 ft 347 kts 160°
2026-04-28 20:20 41.47499 11.43495 27083 ft 347 kts 160°
2026-04-28 20:21 41.45264 11.44714 27080 ft 347 kts 160°
2026-04-28 20:21 41.43023 11.45936 27085 ft 347 kts 160°
2026-04-28 20:21 41.40789 11.47153 27077 ft 347 kts 160°
2026-04-28 20:21 41.38552 11.48371 27079 ft 347 kts 160°
2026-04-28 20:22 41.36327 11.49581 27081 ft 347 kts 160°
2026-04-28 20:22 41.34091 11.50797 27081 ft 347 kts 160°
2026-04-28 20:22 41.31855 11.52011 27081 ft 347 kts 160°
2026-04-28 20:22 41.29628 11.53220 27081 ft 347 kts 160°
2026-04-28 20:23 41.27389 11.54435 27081 ft 347 kts 160°
2026-04-28 20:23 41.25153 11.55646 27081 ft 347 kts 160°
2026-04-28 20:23 41.22917 11.56857 27081 ft 347 kts 160°
2026-04-28 20:23 41.20678 11.58069 27081 ft 347 kts 160°
2026-04-28 20:24 41.18446 11.59276 27074 ft 347 kts 160°
2026-04-28 20:24 41.16206 11.60486 27080 ft 347 kts 160°
2026-04-28 20:24 41.13971 11.61693 27081 ft 347 kts 160°
2026-04-28 20:24 41.11741 11.62896 27081 ft 347 kts 160°
2026-04-28 20:25 41.09518 11.64095 27079 ft 346 kts 160°
2026-04-28 20:25 41.07284 11.65298 27081 ft 346 kts 160°
2026-04-28 20:25 41.05118 11.66465 27082 ft 346 kts 160°
2026-04-28 20:25 41.02881 11.67668 27082 ft 346 kts 160°
2026-04-28 20:26 41.00651 11.68867 27085 ft 347 kts 160°
2026-04-28 20:26 40.98427 11.70062 27083 ft 347 kts 160°
2026-04-28 20:26 40.96187 11.71264 27075 ft 347 kts 160°
2026-04-28 20:26 40.93968 11.72454 27083 ft 347 kts 160°
2026-04-28 20:27 40.91732 11.73653 27081 ft 347 kts 160°
2026-04-28 20:27 40.89491 11.74853 27082 ft 347 kts 160°
2026-04-28 20:27 40.87254 11.76050 27084 ft 347 kts 160°
2026-04-28 20:27 40.85012 11.77250 27084 ft 347 kts 160°
2026-04-28 20:28 40.82772 11.78446 27085 ft 347 kts 160°
2026-04-28 20:28 40.80530 11.79644 27083 ft 347 kts 160°
2026-04-28 20:28 40.78315 11.80826 27083 ft 347 kts 160°
2026-04-28 20:28 40.76072 11.82022 27084 ft 348 kts 160°
2026-04-28 20:29 40.73833 11.83216 27082 ft 348 kts 160°
2026-04-28 20:29 40.71590 11.84410 27085 ft 347 kts 159°
2026-04-28 20:29 40.69345 11.85604 27088 ft 347 kts 159°
2026-04-28 20:29 40.67104 11.86796 27087 ft 348 kts 159°
2026-04-28 20:30 40.64861 11.87988 27084 ft 348 kts 159°
2026-04-28 20:30 40.62621 11.89177 27087 ft 348 kts 159°
2026-04-28 20:30 40.60380 11.90366 27087 ft 348 kts 159°
2026-04-28 20:30 40.58143 11.91552 27086 ft 348 kts 159°
2026-04-28 20:31 40.55899 11.92741 27084 ft 348 kts 159°
2026-04-28 20:31 40.53654 11.93929 27083 ft 348 kts 159°
2026-04-28 20:31 40.51414 11.95115 27083 ft 348 kts 159°
2026-04-28 20:31 40.49169 11.96301 27081 ft 347 kts 159°
2026-04-28 20:32 40.46929 11.97485 27088 ft 347 kts 159°
2026-04-28 20:32 40.44685 11.98669 27086 ft 347 kts 159°
2026-04-28 20:32 40.42442 11.99852 27087 ft 347 kts 159°
2026-04-28 20:32 40.40200 12.01034 27087 ft 347 kts 159°
2026-04-28 20:33 40.37956 12.02216 27085 ft 347 kts 159°
2026-04-28 20:33 40.35714 12.03396 27087 ft 347 kts 159°
2026-04-28 20:33 40.33466 12.04579 27086 ft 348 kts 159°
2026-04-28 20:33 40.31225 12.05756 27086 ft 348 kts 159°
2026-04-28 20:34 40.28978 12.06936 27085 ft 348 kts 159°
2026-04-28 20:34 40.26744 12.08109 27078 ft 348 kts 159°
2026-04-28 20:34 40.24491 12.09291 27084 ft 348 kts 159°
2026-04-28 20:34 40.22240 12.10470 27085 ft 348 kts 159°
2026-04-28 20:35 40.19991 12.11648 27085 ft 349 kts 159°
2026-04-28 20:35 40.17741 12.12826 27083 ft 349 kts 159°
2026-04-28 20:35 40.15487 12.14004 27084 ft 349 kts 159°
2026-04-28 20:35 40.13234 12.15182 27084 ft 349 kts 159°
2026-04-28 20:36 40.10982 12.16358 27083 ft 349 kts 159°
2026-04-28 20:36 40.08741 12.17527 27085 ft 349 kts 159°
2026-04-28 20:36 40.06484 12.18704 27083 ft 349 kts 159°
2026-04-28 20:36 40.04225 12.19882 27084 ft 349 kts 159°
2026-04-28 20:37 40.02001 12.21039 27084 ft 349 kts 159°
2026-04-28 20:37 39.99742 12.22215 27084 ft 349 kts 159°
2026-04-28 20:37 39.97487 12.23387 27083 ft 349 kts 159°
2026-04-28 20:37 39.95232 12.24559 27082 ft 349 kts 159°
2026-04-28 20:38 39.92979 12.25729 27086 ft 349 kts 159°
2026-04-28 20:38 39.90723 12.26900 27084 ft 349 kts 159°
2026-04-28 20:38 39.88467 12.28069 27084 ft 349 kts 159°
2026-04-28 20:38 39.86208 12.29240 27085 ft 349 kts 159°
2026-04-28 20:39 39.83957 12.30405 27084 ft 349 kts 159°
2026-04-28 20:39 39.81732 12.31557 27075 ft 349 kts 159°
2026-04-28 20:39 39.79477 12.32723 27080 ft 349 kts 159°
2026-04-28 20:39 39.77226 12.33885 27084 ft 349 kts 159°
2026-04-28 20:40 39.74979 12.35046 27083 ft 349 kts 159°
2026-04-28 20:40 39.72725 12.36209 27084 ft 349 kts 159°
2026-04-28 20:40 39.70471 12.37371 27084 ft 349 kts 159°
2026-04-28 20:40 39.68213 12.38534 27084 ft 349 kts 159°
2026-04-28 20:41 39.65953 12.39697 27086 ft 349 kts 159°
2026-04-28 20:41 39.63697 12.40858 27085 ft 349 kts 159°
2026-04-28 20:41 39.61439 12.42019 27084 ft 349 kts 159°
2026-04-28 20:41 39.59179 12.43180 27084 ft 350 kts 159°
2026-04-28 20:42 39.56923 12.44339 27078 ft 350 kts 160°
2026-04-28 20:42 39.54666 12.45496 27085 ft 350 kts 160°
2026-04-28 20:42 39.52401 12.46658 27082 ft 350 kts 160°
2026-04-28 20:42 39.50135 12.47818 27081 ft 350 kts 160°
2026-04-28 20:43 39.47865 12.48981 27084 ft 350 kts 160°
2026-04-28 20:43 39.45598 12.50140 27084 ft 350 kts 160°
2026-04-28 20:43 39.43339 12.51295 27081 ft 350 kts 160°
2026-04-28 20:43 39.41074 12.52452 27081 ft 350 kts 160°
2026-04-28 20:44 39.38806 12.53610 27084 ft 350 kts 160°
2026-04-28 20:44 39.36538 12.54767 27084 ft 350 kts 160°
2026-04-28 20:44 39.34268 12.55924 27082 ft 351 kts 160°
2026-04-28 20:44 39.32001 12.57079 27084 ft 351 kts 160°
2026-04-28 20:45 39.29731 12.58235 27081 ft 351 kts 160°
2026-04-28 20:45 39.27461 12.59390 27081 ft 351 kts 160°
2026-04-28 20:45 39.25195 12.60542 27078 ft 351 kts 160°
2026-04-28 20:45 39.22964 12.61675 27078 ft 351 kts 160°
2026-04-28 20:46 39.20694 12.62827 27081 ft 351 kts 160°
2026-04-28 20:46 39.18423 12.63979 27081 ft 351 kts 160°
2026-04-28 20:46 39.16159 12.65127 27081 ft 351 kts 160°
2026-04-28 20:46 39.13888 12.66278 27081 ft 351 kts 160°
2026-04-28 20:47 39.11618 12.67427 27081 ft 351 kts 160°
2026-04-28 20:47 39.09349 12.68575 27077 ft 351 kts 160°
2026-04-28 20:47 39.07105 12.69710 27082 ft 351 kts 160°
2026-04-28 20:47 39.04835 12.70856 27081 ft 351 kts 160°
2026-04-28 20:48 39.02566 12.72002 27083 ft 351 kts 160°
2026-04-28 20:48 39.00295 12.73147 27081 ft 351 kts 160°
2026-04-28 20:48 38.98019 12.74295 27081 ft 351 kts 160°
2026-04-28 20:48 38.95740 12.75443 27075 ft 352 kts 160°
2026-04-28 20:49 38.93457 12.76592 27077 ft 352 kts 160°
2026-04-28 20:49 38.91183 12.77736 27079 ft 352 kts 160°
2026-04-28 20:49 38.88908 12.78880 27078 ft 352 kts 160°
2026-04-28 20:49 38.86649 12.80015 27071 ft 352 kts 161°
2026-04-28 20:50 38.84373 12.81158 27079 ft 353 kts 161°
2026-04-28 20:50 38.82083 12.82307 27084 ft 353 kts 161°
2026-04-28 20:50 38.79802 12.83450 27081 ft 353 kts 161°
2026-04-28 20:50 38.77513 12.84597 27078 ft 353 kts 161°
2026-04-28 20:51 38.75224 12.85743 27076 ft 353 kts 161°
2026-04-28 20:51 38.72940 12.86886 27076 ft 354 kts 161°
2026-04-28 20:51 38.70648 12.88032 27075 ft 354 kts 161°
2026-04-28 20:51 38.69119 12.88796 27076 ft 354 kts 161°
2026-04-28 20:52 38.66058 12.90325 27075 ft 354 kts 161°
2026-04-28 20:52 38.63792 12.91456 27076 ft 354 kts 161°
2026-04-28 20:52 38.61478 12.92609 27076 ft 354 kts 162°
2026-04-28 20:52 38.59187 12.93750 27075 ft 354 kts 162°
2026-04-28 20:53 38.54599 12.96035 27077 ft 354 kts 162°
2026-04-28 20:53 38.52309 12.97173 27077 ft 354 kts 162°
2026-04-28 20:53 38.50009 12.98316 27076 ft 354 kts 162°
2026-04-28 20:54 38.47706 12.99459 27075 ft 355 kts 162°
2026-04-28 20:54 38.45409 13.00599 27075 ft 355 kts 162°
2026-04-28 20:54 38.43112 13.01738 27072 ft 355 kts 162°
2026-04-28 20:54 38.40810 13.02879 27073 ft 355 kts 162°
2026-04-28 20:55 38.38517 13.04015 27060 ft 355 kts 162°
2026-04-28 20:55 38.36217 13.05153 27068 ft 354 kts 162°
2026-04-28 20:55 38.33920 13.06289 27067 ft 354 kts 162°
2026-04-28 20:55 38.31619 13.07426 27066 ft 355 kts 162°
2026-04-28 20:56 38.29318 13.08562 27065 ft 355 kts 162°
2026-04-28 20:56 38.27021 13.09696 27064 ft 355 kts 162°
2026-04-28 20:56 38.24758 13.10812 27064 ft 355 kts 162°
2026-04-28 20:56 38.22483 13.11933 27065 ft 355 kts 162°
2026-04-28 20:57 38.20182 13.13066 27084 ft 355 kts 162°
2026-04-28 20:57 38.17880 13.14199 27087 ft 355 kts 162°
2026-04-28 20:57 38.15575 13.15333 27085 ft 355 kts 162°
2026-04-28 20:57 38.13273 13.16464 27085 ft 355 kts 163°
2026-04-28 20:58 38.10969 13.17596 27095 ft 355 kts 163°
2026-04-28 20:58 38.08683 13.18718 27093 ft 356 kts 163°
2026-04-28 20:58 38.06351 13.19862 27088 ft 356 kts 163°
2026-04-28 20:58 38.04061 13.20984 27086 ft 356 kts 163°
2026-04-28 20:59 38.01745 13.22119 27092 ft 356 kts 163°
2026-04-28 20:59 37.99434 13.23250 27096 ft 356 kts 163°
2026-04-28 20:59 37.97125 13.24379 27096 ft 356 kts 163°
2026-04-28 20:59 37.94868 13.25483 27093 ft 356 kts 163°
2026-04-28 21:00 37.92557 13.26612 27097 ft 356 kts 163°
2026-04-28 21:00 37.90249 13.27738 27094 ft 356 kts 163°
2026-04-28 21:00 37.87947 13.28861 27096 ft 356 kts 163°
2026-04-28 21:00 37.85639 13.29987 27100 ft 355 kts 163°
2026-04-28 21:01 37.83355 13.31099 27101 ft 356 kts 163°
2026-04-28 21:01 37.81043 13.32225 27095 ft 356 kts 163°
2026-04-28 21:01 37.78738 13.33347 27096 ft 355 kts 163°
2026-04-28 21:01 37.76429 13.34469 27097 ft 355 kts 163°
2026-04-28 21:02 37.74868 13.35228 27101 ft 355 kts 163°
2026-04-28 21:02 37.72589 13.36335 27104 ft 355 kts 163°
2026-04-28 21:02 37.70283 13.37454 27105 ft 355 kts 163°
2026-04-28 21:02 37.67994 13.38564 27108 ft 355 kts 163°
2026-04-28 21:03 37.65679 13.39686 27107 ft 356 kts 163°
2026-04-28 21:03 37.63361 13.40809 27107 ft 356 kts 163°
2026-04-28 21:03 37.61051 13.41927 27106 ft 356 kts 163°
2026-04-28 21:03 37.58743 13.43044 27103 ft 356 kts 163°
2026-04-28 21:04 37.56430 13.44162 27109 ft 356 kts 163°
2026-04-28 21:04 37.54126 13.45275 27108 ft 356 kts 163°
2026-04-28 21:04 37.51821 13.46387 27106 ft 356 kts 163°
2026-04-28 21:04 37.49506 13.47504 27100 ft 356 kts 163°
2026-04-28 21:05 37.47195 13.48618 27100 ft 356 kts 163°
2026-04-28 21:05 37.44882 13.49733 27114 ft 356 kts 163°
2026-04-28 21:05 37.42583 13.50840 27107 ft 356 kts 163°
2026-04-28 21:05 37.40269 13.51953 27088 ft 356 kts 163°
2026-04-28 21:06 37.37961 13.53063 27104 ft 355 kts 163°
2026-04-28 21:06 37.35662 13.54168 27107 ft 355 kts 163°
2026-04-28 21:06 37.33356 13.55275 27105 ft 355 kts 163°
2026-04-28 21:06 37.31045 13.56384 27102 ft 355 kts 163°
2026-04-28 21:07 37.28737 13.57491 27102 ft 355 kts 163°
2026-04-28 21:07 37.26435 13.58594 27104 ft 355 kts 163°
2026-04-28 21:07 37.24124 13.59701 27101 ft 355 kts 163°
2026-04-28 21:07 37.21817 13.60805 27103 ft 355 kts 163°
2026-04-28 21:08 37.19528 13.61900 27097 ft 355 kts 163°
2026-04-28 21:08 37.17232 13.62998 27095 ft 355 kts 163°
2026-04-28 21:08 37.14922 13.64101 27091 ft 355 kts 163°
2026-04-28 21:08 37.12621 13.65199 27099 ft 354 kts 164°
2026-04-28 21:09 37.10309 13.66247 27098 ft 354 kts 165°
2026-04-28 21:09 37.07999 13.67338 27097 ft 355 kts 163°
2026-04-28 21:09 37.05710 13.68479 27097 ft 355 kts 162°
2026-04-28 21:09 37.03538 13.69587 27099 ft 355 kts 162°
2026-04-28 21:10 37.01249 13.70767 27098 ft 355 kts 162°
2026-04-28 21:10 36.98967 13.71948 27098 ft 355 kts 162°
2026-04-28 21:10 36.96682 13.73132 27095 ft 355 kts 162°
2026-04-28 21:10 36.94398 13.74315 27035 ft 358 kts 162°
2026-04-28 21:11 36.92081 13.75514 26851 ft 362 kts 162°
2026-04-28 21:11 36.89738 13.76726 26589 ft 367 kts 162°
2026-04-28 21:11 36.87383 13.77944 26225 ft 364 kts 162°
2026-04-28 21:11 36.85065 13.79143 25753 ft 359 kts 162°
2026-04-28 21:12 36.82764 13.80330 25304 ft 357 kts 162°
2026-04-28 21:12 36.80482 13.81507 24856 ft 352 kts 162°
2026-04-28 21:12 36.78233 13.82665 24311 ft 350 kts 162°
2026-04-28 21:12 36.75994 13.83817 23601 ft 343 kts 162°
2026-04-28 21:13 36.73800 13.84945 22869 ft 340 kts 162°
2026-04-28 21:13 36.71661 13.86044 22186 ft 336 kts 162°
2026-04-28 21:13 36.69514 13.87146 21493 ft 332 kts 162°
2026-04-28 21:13 36.67395 13.88233 20820 ft 329 kts 162°
2026-04-28 21:14 36.65292 13.89310 20161 ft 326 kts 162°
2026-04-28 21:14 36.63207 13.90378 19515 ft 323 kts 162°
2026-04-28 21:14 36.61148 13.91432 18886 ft 320 kts 162°
2026-04-28 21:14 36.59092 13.92483 18261 ft 317 kts 162°
2026-04-28 21:15 36.57071 13.93516 17557 ft 312 kts 162°
2026-04-28 21:15 36.55077 13.94534 16864 ft 308 kts 162°
2026-04-28 21:15 36.53066 13.95559 16183 ft 313 kts 161°
2026-04-28 21:15 36.50985 13.96615 15525 ft 333 kts 161°
2026-04-28 21:16 36.48857 13.97700 14884 ft 328 kts 161°
2026-04-28 21:16 36.46751 13.98766 14244 ft 324 kts 161°
2026-04-28 21:16 36.44675 13.99817 13582 ft 321 kts 161°
2026-04-28 21:16 36.42623 14.00859 12894 ft 317 kts 161°
2026-04-28 21:17 36.40595 14.01888 12209 ft 313 kts 161°
2026-04-28 21:17 36.38592 14.02904 11534 ft 309 kts 161°
2026-04-28 21:17 36.36612 14.03908 10902 ft 306 kts 161°
2026-04-28 21:17 36.34656 14.04898 10261 ft 304 kts 160°
2026-04-28 21:18 36.32708 14.05885 9598 ft 301 kts 160°
2026-04-28 21:18 36.30787 14.06859 8922 ft 297 kts 161°
2026-04-28 21:18 36.28886 14.07821 8244 ft 293 kts 161°
2026-04-28 21:18 36.27041 14.08753 7599 ft 287 kts 160°
2026-04-28 21:19 36.25208 14.09678 6951 ft 281 kts 160°
2026-04-28 21:19 36.23410 14.10586 6314 ft 276 kts 159°
2026-04-28 21:19 36.21644 14.11476 5649 ft 270 kts 159°
2026-04-28 21:19 36.20039 14.12285 5044 ft 253 kts 158°
2026-04-28 21:20 36.18473 14.13074 4585 ft 234 kts 158°
2026-04-28 21:20 36.17007 14.13811 4149 ft 227 kts 158°
2026-04-28 21:20 36.15566 14.14536 3738 ft 221 kts 157°
2026-04-28 21:20 36.14148 14.15250 3309 ft 221 kts 157°
2026-04-28 21:21 36.12736 14.15962 3144 ft 222 kts 157°
2026-04-28 21:21 36.11292 14.16687 3092 ft 224 kts 157°
2026-04-28 21:21 36.09846 14.17403 3075 ft 224 kts 157°
2026-04-28 21:21 36.08442 14.18228 3059 ft 219 kts 141°
2026-04-28 21:22 36.07606 14.19751 3068 ft 224 kts 112°
2026-04-28 21:22 36.06935 14.21497 3070 ft 225 kts 127°
2026-04-28 21:22 36.05852 14.22804 3068 ft 221 kts 137°
2026-04-28 21:22 36.05087 14.23711 3068 ft 224 kts 136°
2026-04-28 21:23 36.03654 14.25446 3054 ft 201 kts 135°
2026-04-28 21:23 36.02722 14.26594 3063 ft 180 kts 135°
2026-04-28 21:23 36.01854 14.27676 3070 ft 176 kts 134°
2026-04-28 21:23 36.00992 14.28758 3056 ft 175 kts 134°
2026-04-28 21:24 36.00143 14.29826 3058 ft 175 kts 134°
2026-04-28 21:24 35.99291 14.30899 3058 ft 176 kts 134°
2026-04-28 21:24 35.98417 14.31997 3061 ft 178 kts 134°
2026-04-28 21:24 35.97569 14.33060 3050 ft 174 kts 134°
2026-04-28 21:25 35.96695 14.34152 3064 ft 170 kts 134°
2026-04-28 21:25 35.95925 14.35112 2939 ft 148 kts 134°
2026-04-28 21:25 35.95225 14.35985 2772 ft 144 kts 134°
2026-04-28 21:25 35.94523 14.36857 2646 ft 141 kts 134°
2026-04-28 21:26 35.93859 14.37683 2462 ft 126 kts 134°
2026-04-28 21:26 35.93271 14.38414 2390 ft 113 kts 134°
2026-04-28 21:26 35.92732 14.39082 2292 ft 105 kts 133°
2026-04-28 21:26 35.92238 14.39695 2126 ft 99 kts 134°
2026-04-28 21:27 35.91751 14.40299 1965 ft 99 kts 135°
2026-04-28 21:27 35.91268 14.40901 1777 ft 99 kts 135°
2026-04-28 21:27 35.90784 14.41500 1670 ft 98 kts 135°
2026-04-28 21:27 35.90286 14.42120 1546 ft 103 kts 134°
2026-04-28 21:28 35.89775 14.42747 1410 ft 99 kts 135°
2026-04-28 21:28 35.89264 14.43374 1262 ft 101 kts 135°
2026-04-28 21:28 35.88782 14.43953 1108 ft 94 kts 134°
2026-04-28 21:28 35.88301 14.44528 975 ft 104 kts 134°
2026-04-28 21:29 35.87794 14.45158 886 ft 101 kts 133°
2026-04-28 21:29 35.87311 14.45757 768 ft 98 kts 133°
2026-04-28 21:29 35.86819 14.46383 665 ft 105 kts 131°
2026-04-28 21:29 35.86334 14.46978 529 ft 104 kts 128°
2026-04-28 21:30 35.85844 14.47616 367 ft 102 kts 130°
2026-04-28 21:30 35.85366 14.48218 266 ft 86 kts 131°
2026-04-28 21:30 35.85213 14.48427 266 ft 7 kts 133°
2026-04-28 21:30 35.85202 14.48438 266 ft 1 kts 157°
2026-04-28 21:31 35.85199 14.48435 266 ft 1 kts 234°
2026-04-28 21:31 35.85209 14.48419 266 ft 11 kts 314°
2026-04-28 21:31 35.85290 14.48323 265 ft 19 kts 317°
2026-04-28 21:31 35.85390 14.48201 266 ft 20 kts 315°
2026-04-28 21:32 35.85499 14.48099 265 ft 20 kts 332°
2026-04-28 21:32 35.85596 14.48047 266 ft 10 kts 339°
2026-04-28 21:32 35.85650 14.48046 264 ft 7 kts 37°
2026-04-28 21:32 35.85661 14.48100 262 ft 6 kts 91°
2026-04-28 21:33 35.85661 14.48136 261 ft 3 kts 92°
2026-04-28 21:33 35.85661 14.48168 260 ft 4 kts 90°
2026-04-28 21:33 35.85650 14.48203 260 ft 4 kts 134°
2026-04-28 21:33 35.85614 14.48218 262 ft 11 kts 173°
2026-04-28 21:34 35.85561 14.48236 263 ft 4 kts 137°
2026-04-28 21:34 35.85551 14.48267 263 ft 5 kts 76°
2026-04-28 21:34 35.85591 14.48288 262 ft 2 kts
2026-04-28 21:34 35.85599 14.48288 261 ft 0 kts